Time,TemperatureF,DewpointF,PressureIn,WindDirection,WindDirectionDegrees,WindSpeedMPH,WindSpeedGustMPH,Humidity,HourlyPrecipIn,Conditions,Clouds,dailyrainin,SoftwareType,DateUTC
2013-03-24 00:02:00,32.0,32.0,30.32,SE,128,1.0,2.0,99,-99.99,,,-99.99,,2013-03-24 07:02:00,
2013-03-24 00:12:00,32.0,32.0,30.32,SSE,159,1.0,2.0,99,-99.99,,,-99.99,,2013-03-24 07:12:00,
2013-03-24 00:22:00,32.0,31.0,30.32,SE,126,1.0,2.0,98,-99.99,,,-99.99,,2013-03-24 07:22:00,
2013-03-24 00:32:00,31.0,31.0,30.32,SE,133,0.0,1.0,98,-99.99,,,-99.99,,2013-03-24 07:32:00,
2013-03-24 00:42:00,31.0,31.0,30.32,SE,134,1.0,1.0,100,-99.99,,,-99.99,,2013-03-24 07:42:00,
2013-03-24 00:52:00,31.0,31.0,30.31,SE,140,1.0,2.0,100,-99.99,,,-99.99,,2013-03-24 07:52:00,
2013-03-24 01:02:00,30.0,30.0,30.31,SE,129,2.0,2.0,100,-99.99,,,-99.99,,2013-03-24 08:02:00,
2013-03-24 01:12:00,30.0,30.0,30.31,SE,146,0.0,1.0,100,-99.99,,,-99.99,,2013-03-24 08:12:00,
2013-03-24 01:22:00,30.0,30.0,30.31,SW,229,0.0,1.0,100,-99.99,,,-99.99,,2013-03-24 08:22:00,
2013-03-24 01:32:00,30.0,30.0,30.31,SW,229,0.0,1.0,100,-99.99,,,-99.99,,2013-03-24 08:32:00,
2013-03-24 01:42:00,30.0,30.0,30.31,SE,135,2.0,2.0,100,-99.99,,,-99.99,,2013-03-24 08:42:00,
2013-03-24 01:52:00,30.0,30.0,30.31,ESE,121,1.0,2.0,100,-99.99,,,-99.99,,2013-03-24 08:52:00,
2013-03-24 02:02:00,30.0,30.0,30.31,SE,137,1.0,1.0,100,-99.99,,,-99.99,,2013-03-24 09:02:00,
2013-03-24 02:12:00,29.0,29.0,30.31,SSW,208,1.0,2.0,100,-99.99,,,-99.99,,2013-03-24 09:12:00,
2013-03-24 02:22:00,29.0,29.0,30.31,West,261,1.0,1.0,100,-99.99,,,-99.99,,2013-03-24 09:22:00,
2013-03-24 02:33:00,29.0,29.0,30.31,SW,224,2.0,2.0,100,-99.99,,,-99.99,,2013-03-24 09:33:00,
2013-03-24 02:42:00,29.0,29.0,30.32,South,170,1.0,1.0,100,-99.99,,,-99.99,,2013-03-24 09:42:00,
2013-03-24 02:52:00,29.0,29.0,30.32,East,80,1.0,2.0,100,-99.99,,,-99.99,,2013-03-24 09:52:00,
2013-03-24 03:02:00,29.0,29.0,30.32,ENE,70,2.0,2.0,100,-99.99,,,-99.99,,2013-03-24 10:02:00,
2013-03-24 03:12:00,29.0,29.0,30.32,East,101,1.0,1.0,100,-99.99,,,-99.99,,2013-03-24 10:12:00,
2013-03-24 03:22:00,29.0,29.0,30.32,ESE,109,0.0,1.0,100,-99.99,,,-99.99,,2013-03-24 10:22:00,
2013-03-24 03:32:00,29.0,29.0,30.32,ESE,118,0.0,0.0,100,-99.99,,,-99.99,,2013-03-24 10:32:00,
2013-03-24 03:42:00,29.0,29.0,30.32,South,185,1.0,1.0,100,-99.99,,,-99.99,,2013-03-24 10:42:00,
2013-03-24 03:52:00,29.0,29.0,30.32,WSW,244,1.0,2.0,106,-99.99,,,-99.99,,2013-03-24 10:52:00,
2013-03-24 04:02:00,29.0,29.0,30.32,West,267,2.0,2.0,106,-99.99,,,-99.99,,2013-03-24 11:02:00,
2013-03-24 04:12:00,29.0,29.0,30.32,WSW,240,0.0,1.0,106,-99.99,,,-99.99,,2013-03-24 11:12:00,
2013-03-24 04:22:00,30.0,30.0,30.32,SW,232,1.0,1.0,106,-99.99,,,-99.99,,2013-03-24 11:22:00,
2013-03-24 04:32:00,29.0,29.0,30.32,SE,138,2.0,3.0,100,-99.99,,,-99.99,,2013-03-24 11:32:00,
2013-03-24 04:42:00,29.0,29.0,30.32,SE,136,3.0,3.0,100,-99.99,,,-99.99,,2013-03-24 11:42:00,
2013-03-24 04:52:00,29.0,29.0,30.32,SSE,147,1.0,1.0,100,-99.99,,,-99.99,,2013-03-24 11:52:00,
2013-03-24 05:02:00,29.0,29.0,30.32,SSE,159,1.0,1.0,100,-99.99,,,-99.99,,2013-03-24 12:02:00,
2013-03-24 05:12:00,29.0,29.0,30.32,South,180,1.0,2.0,100,-99.99,,,-99.99,,2013-03-24 12:12:00,
2013-03-24 05:22:00,29.0,29.0,30.32,ESE,108,0.0,0.0,106,-99.99,,,-99.99,,2013-03-24 12:22:00,
2013-03-24 05:32:00,29.0,29.0,30.32,ENE,61,1.0,1.0,106,-99.99,,,-99.99,,2013-03-24 12:32:00,
2013-03-24 05:42:00,29.0,29.0,30.32,North,0,1.0,1.0,106,-99.99,,,-99.99,,2013-03-24 12:42:00,
2013-03-24 05:52:00,29.0,29.0,30.32,NE,37,1.0,1.0,106,-99.99,,,-99.99,,2013-03-24 12:52:00,
2013-03-24 06:02:00,30.0,30.0,30.32,ESE,103,1.0,1.0,107,-99.99,,,-99.99,,2013-03-24 13:02:00,
2013-03-24 06:12:00,30.0,30.0,30.32,SE,144,1.0,2.0,106,-99.99,,,-99.99,,2013-03-24 13:12:00,
2013-03-24 06:22:00,29.0,29.0,30.32,SSW,195,2.0,2.0,106,-99.99,,,-99.99,,2013-03-24 13:22:00,
2013-03-24 06:32:00,29.0,29.0,30.32,SSW,210,0.0,1.0,106,-99.99,,,-99.99,,2013-03-24 13:32:00,
2013-03-24 06:42:00,29.0,29.0,30.32,SE,124,1.0,1.0,106,-99.99,,,-99.99,,2013-03-24 13:42:00,
2013-03-24 06:52:00,29.0,29.0,30.32,SSE,151,1.0,1.0,106,-99.99,,,-99.99,,2013-03-24 13:52:00,
2013-03-24 07:02:00,29.0,29.0,30.32,ENE,61,1.0,1.0,100,-99.99,,,-99.99,,2013-03-24 14:02:00,
2013-03-24 07:12:00,28.0,28.0,30.32,North,353,1.0,1.0,100,-99.99,,,-99.99,,2013-03-24 14:12:00,
2013-03-24 07:22:00,29.0,29.0,30.32,West,264,2.0,2.0,106,-99.99,,,-99.99,,2013-03-24 14:22:00,
2013-03-24 07:32:00,29.0,29.0,30.32,SW,226,2.0,2.0,107,-99.99,,,-99.99,,2013-03-24 14:32:00,
2013-03-24 07:42:00,29.0,29.0,30.32,SW,221,1.0,2.0,107,-99.99,,,-99.99,,2013-03-24 14:42:00,
2013-03-24 07:52:00,29.0,29.0,30.32,SE,140,1.0,1.0,107,-99.99,,,-99.99,,2013-03-24 14:52:00,
2013-03-24 08:02:00,29.0,29.0,30.33,SE,142,1.0,1.0,106,-99.99,,,-99.99,,2013-03-24 15:02:00,
2013-03-24 08:12:00,29.0,29.0,30.33,SE,139,0.0,0.0,106,-99.99,,,-99.99,,2013-03-24 15:12:00,
2013-03-24 08:22:00,30.0,30.0,30.33,SE,141,1.0,1.0,106,-99.99,,,-99.99,,2013-03-24 15:22:00,
2013-03-24 08:33:00,30.0,30.0,30.33,SE,137,1.0,1.0,106,-99.99,,,-99.99,,2013-03-24 15:33:00,
2013-03-24 08:43:00,30.0,30.0,30.33,SW,229,1.0,1.0,100,-99.99,,,-99.99,,2013-03-24 15:43:00,
2013-03-24 08:53:00,30.0,30.0,30.33,WSW,241,1.0,1.0,100,-99.99,,,-99.99,,2013-03-24 15:53:00,
2013-03-24 09:02:00,30.0,30.0,30.33,West,272,1.0,1.0,100,-99.99,,,-99.99,,2013-03-24 16:02:00,
2013-03-24 09:12:00,31.0,31.0,30.33,West,273,0.0,1.0,100,-99.99,,,-99.99,,2013-03-24 16:12:00,
2013-03-24 09:22:00,31.0,31.0,30.33,West,265,1.0,1.0,100,-99.99,,,-99.99,,2013-03-24 16:22:00,
2013-03-24 09:32:00,32.0,32.0,30.33,West,266,1.0,1.0,100,-99.99,,,-99.99,,2013-03-24 16:32:00,
2013-03-24 09:42:00,32.0,32.0,30.33,West,272,1.0,1.0,99,-99.99,,,-99.99,,2013-03-24 16:42:00,
2013-03-24 09:52:00,34.0,33.0,30.33,NE,42,1.0,2.0,96,-99.99,,,-99.99,,2013-03-24 16:52:00,
2013-03-24 10:02:00,35.0,32.0,30.33,ESE,118,1.0,1.0,91,-99.99,,,-99.99,,2013-03-24 17:02:00,
2013-03-24 10:12:00,35.0,32.0,30.33,SE,133,1.0,1.0,87,-99.99,,,-99.99,,2013-03-24 17:12:00,
2013-03-24 10:22:00,36.0,33.0,30.33,ENE,68,0.0,1.0,89,-99.99,,,-99.99,,2013-03-24 17:22:00,
2013-03-24 10:32:00,37.0,32.0,30.33,ENE,59,1.0,1.0,82,-99.99,,,-99.99,,2013-03-24 17:32:00,
2013-03-24 10:42:00,38.0,32.0,30.32,NNW,335,1.0,1.0,79,-99.99,,,-99.99,,2013-03-24 17:42:00,
2013-03-24 10:52:00,38.0,30.0,30.32,NNW,348,3.0,5.0,71,-99.99,,,-99.99,,2013-03-24 17:52:00,
2013-03-24 11:02:00,39.0,29.0,30.31,North,354,3.0,5.0,67,-99.99,,,-99.99,,2013-03-24 18:02:00,
2013-03-24 11:12:00,39.0,29.0,30.31,NNW,348,4.0,6.0,67,-99.99,,,-99.99,,2013-03-24 18:12:00,
2013-03-24 11:22:00,41.0,30.0,30.31,North,1,4.0,6.0,63,-99.99,,,-99.99,,2013-03-24 18:22:00,
2013-03-24 11:32:00,43.0,29.0,30.31,NNE,12,3.0,6.0,57,-99.99,,,-99.99,,2013-03-24 18:32:00,
2013-03-24 11:42:00,44.0,29.0,30.30,North,3,5.0,9.0,56,-99.99,,,-99.99,,2013-03-24 18:42:00,
2013-03-24 11:52:00,45.0,27.0,30.30,NE,50,7.0,10.0,49,-99.99,,,-99.99,,2013-03-24 18:52:00,
2013-03-24 12:02:00,47.0,27.0,30.30,NE,46,6.0,11.0,45,-99.99,,,-99.99,,2013-03-24 19:02:00,
2013-03-24 12:12:00,49.0,27.0,30.30,NE,38,5.0,10.0,42,-99.99,,,-99.99,,2013-03-24 19:12:00,
2013-03-24 12:22:00,50.0,26.0,30.30,NE,53,5.0,10.0,39,-99.99,,,-99.99,,2013-03-24 19:22:00,
2013-03-24 12:32:00,50.0,27.0,30.29,ENE,64,7.0,10.0,39,-99.99,,,-99.99,,2013-03-24 19:32:00,
2013-03-24 12:42:00,51.0,28.0,30.29,ENE,65,7.0,11.0,40,-99.99,,,-99.99,,2013-03-24 19:42:00,
2013-03-24 12:52:00,51.0,26.0,30.29,NE,52,5.0,10.0,38,-99.99,,,-99.99,,2013-03-24 19:52:00,
2013-03-24 13:02:00,51.0,26.0,30.29,NE,52,5.0,10.0,38,-99.99,,,-99.99,,2013-03-24 20:02:00,
2013-03-24 13:12:00,52.0,26.0,30.28,NE,53,4.0,9.0,36,-99.99,,,-99.99,,2013-03-24 20:12:00,
2013-03-24 13:22:00,52.0,27.0,30.28,NE,51,3.0,6.0,37,-99.99,,,-99.99,,2013-03-24 20:22:00,
2013-03-24 13:32:00,50.0,24.0,30.28,NE,48,3.0,10.0,34,-99.99,,,-99.99,,2013-03-24 20:32:00,
2013-03-24 13:42:00,49.0,24.0,30.28,NNE,27,4.0,10.0,36,-99.99,,,-99.99,,2013-03-24 20:42:00,
2013-03-24 13:52:00,51.0,24.0,30.27,NE,47,4.0,9.0,34,-99.99,,,-99.99,,2013-03-24 20:52:00,
2013-03-24 14:02:00,52.0,23.0,30.27,NE,48,5.0,10.0,32,-99.99,,,-99.99,,2013-03-24 21:02:00,
2013-03-24 14:11:00,53.0,24.0,30.27,East,81,3.0,11.0,31,-99.99,,,-99.99,,2013-03-24 21:11:00,
2013-03-24 14:22:00,52.0,22.0,30.26,East,92,7.0,12.0,30,-99.99,,,-99.99,,2013-03-24 21:22:00,
2013-03-24 14:32:00,52.0,22.0,30.26,East,87,8.0,15.0,30,-99.99,,,-99.99,,2013-03-24 21:32:00,
2013-03-24 14:43:00,52.0,22.0,30.25,East,87,8.0,12.0,31,-99.99,,,-99.99,,2013-03-24 21:43:00,
2013-03-24 14:52:00,52.0,22.0,30.25,East,83,9.0,17.0,30,-99.99,,,-99.99,,2013-03-24 21:52:00,
2013-03-24 15:02:00,52.0,22.0,30.25,East,93,9.0,16.0,30,-99.99,,,-99.99,,2013-03-24 22:02:00,
2013-03-24 15:12:00,52.0,22.0,30.24,ESE,107,9.0,16.0,30,-99.99,,,-99.99,,2013-03-24 22:12:00,
2013-03-24 15:22:00,53.0,23.0,30.24,East,97,6.0,10.0,31,-99.99,,,-99.99,,2013-03-24 22:22:00,
2013-03-24 15:33:00,53.0,23.0,30.23,East,80,6.0,13.0,30,-99.99,,,-99.99,,2013-03-24 22:33:00,
2013-03-24 15:42:00,53.0,23.0,30.23,East,93,5.0,8.0,30,-99.99,,,-99.99,,2013-03-24 22:42:00,
2013-03-24 15:52:00,52.0,23.0,30.23,ENE,70,7.0,11.0,31,-99.99,,,-99.99,,2013-03-24 22:52:00,
2013-03-24 16:02:00,52.0,23.0,30.23,ESE,109,6.0,10.0,32,-99.99,,,-99.99,,2013-03-24 23:02:00,
2013-03-24 16:11:00,52.0,24.0,30.22,East,101,7.0,11.0,33,-99.99,,,-99.99,,2013-03-24 23:11:00,
2013-03-24 16:22:00,52.0,24.0,30.22,ESE,113,5.0,9.0,33,-99.99,,,-99.99,,2013-03-24 23:22:00,
2013-03-24 16:32:00,52.0,22.0,30.22,ESE,107,6.0,11.0,30,-99.99,,,-99.99,,2013-03-24 23:32:00,
2013-03-24 16:42:00,52.0,21.0,30.22,SE,136,4.0,7.0,29,-99.99,,,-99.99,,2013-03-24 23:42:00,
2013-03-24 16:52:00,52.0,21.0,30.22,SE,139,4.0,10.0,29,-99.99,,,-99.99,,2013-03-24 23:52:00,
2013-03-24 17:02:00,52.0,23.0,30.21,SE,142,4.0,9.0,31,-99.99,,,-99.99,,2013-03-25 00:02:00,
2013-03-24 17:12:00,52.0,23.0,30.21,SSE,148,3.0,8.0,31,-99.99,,,-99.99,,2013-03-25 00:12:00,
2013-03-24 17:22:00,52.0,23.0,30.21,SE,126,5.0,7.0,32,-99.99,,,-99.99,,2013-03-25 00:22:00,
2013-03-24 17:32:00,51.0,23.0,30.21,SE,136,5.0,9.0,33,-99.99,,,-99.99,,2013-03-25 00:32:00,
2013-03-24 17:42:00,51.0,23.0,30.21,SE,136,5.0,9.0,33,-99.99,,,-99.99,,2013-03-25 00:42:00,
2013-03-24 17:52:00,51.0,23.0,30.20,SE,137,4.0,8.0,32,-99.99,,,-99.99,,2013-03-25 00:52:00,
2013-03-24 18:02:00,51.0,22.0,30.20,SSE,155,2.0,5.0,31,-99.99,,,-99.99,,2013-03-25 01:02:00,
2013-03-24 18:12:00,50.0,23.0,30.20,SSE,150,2.0,4.0,34,-99.99,,,-99.99,,2013-03-25 01:12:00,
2013-03-24 18:22:00,50.0,23.0,30.20,SSE,161,3.0,6.0,34,-99.99,,,-99.99,,2013-03-25 01:22:00,
2013-03-24 18:32:00,50.0,23.0,30.20,SSE,154,2.0,4.0,34,-99.99,,,-99.99,,2013-03-25 01:32:00,
2013-03-24 18:42:00,50.0,24.0,30.19,SSE,157,2.0,4.0,34,-99.99,,,-99.99,,2013-03-25 01:42:00,
2013-03-24 18:52:00,50.0,23.0,30.19,SE,126,2.0,2.0,33,-99.99,,,-99.99,,2013-03-25 01:52:00,
2013-03-24 19:02:00,50.0,23.0,30.19,East,97,1.0,2.0,34,-99.99,,,-99.99,,2013-03-25 02:02:00,
2013-03-24 19:12:00,50.0,23.0,30.18,NE,41,2.0,2.0,34,-99.99,,,-99.99,,2013-03-25 02:12:00,
2013-03-24 19:22:00,50.0,23.0,30.18,ENE,70,3.0,4.0,35,-99.99,,,-99.99,,2013-03-25 02:22:00,
2013-03-24 19:32:00,50.0,23.0,30.18,East,84,2.0,3.0,35,-99.99,,,-99.99,,2013-03-25 02:32:00,
2013-03-24 19:42:00,49.0,25.0,30.18,East,82,1.0,1.0,38,-99.99,,,-99.99,,2013-03-25 02:42:00,
2013-03-24 19:52:00,49.0,25.0,30.18,ENE,64,1.0,1.0,39,-99.99,,,-99.99,,2013-03-25 02:52:00,
2013-03-24 20:02:00,49.0,25.0,30.18,ENE,74,2.0,4.0,39,-99.99,,,-99.99,,2013-03-25 03:02:00,
2013-03-24 20:12:00,48.0,25.0,30.17,ENE,66,2.0,2.0,40,-99.99,,,-99.99,,2013-03-25 03:12:00,
2013-03-24 20:22:00,47.0,26.0,30.17,ENE,59,1.0,1.0,43,-99.99,,,-99.99,,2013-03-25 03:22:00,
2013-03-24 20:33:00,46.0,27.0,30.17,ENE,62,0.0,0.0,47,-99.99,,,-99.99,,2013-03-25 03:33:00,
2013-03-24 20:42:00,46.0,29.0,30.16,West,278,1.0,1.0,51,-99.99,,,-99.99,,2013-03-25 03:42:00,
2013-03-24 20:52:00,45.0,27.0,30.16,WNW,293,1.0,2.0,48,-99.99,,,-99.99,,2013-03-25 03:52:00,
2013-03-24 21:02:00,45.0,30.0,30.16,NW,308,1.0,2.0,54,-99.99,,,-99.99,,2013-03-25 04:02:00,
2013-03-24 21:12:00,45.0,29.0,30.16,NW,309,1.0,2.0,52,-99.99,,,-99.99,,2013-03-25 04:12:00,
2013-03-24 21:22:00,45.0,28.0,30.16,NNW,339,2.0,3.0,50,-99.99,,,-99.99,,2013-03-25 04:22:00,
2013-03-24 21:32:00,45.0,29.0,30.17,NNW,328,2.0,3.0,53,-99.99,,,-99.99,,2013-03-25 04:32:00,
2013-03-24 21:42:00,45.0,29.0,30.17,NW,325,3.0,4.0,52,-99.99,,,-99.99,,2013-03-25 04:42:00,
2013-03-24 21:52:00,45.0,28.0,30.17,NNW,334,4.0,6.0,51,-99.99,,,-99.99,,2013-03-25 04:52:00,
2013-03-24 22:02:00,45.0,29.0,30.17,NW,326,3.0,5.0,52,-99.99,,,-99.99,,2013-03-25 05:02:00,
2013-03-24 22:12:00,45.0,29.0,30.17,NNW,333,3.0,4.0,52,-99.99,,,-99.99,,2013-03-25 05:12:00,
2013-03-24 22:22:00,44.0,29.0,30.18,NNW,336,3.0,5.0,53,-99.99,,,-99.99,,2013-03-25 05:22:00,
2013-03-24 22:32:00,44.0,29.0,30.18,NNW,330,3.0,5.0,54,-99.99,,,-99.99,,2013-03-25 05:32:00,
2013-03-24 22:42:00,44.0,29.0,30.18,NNW,336,3.0,5.0,54,-99.99,,,-99.99,,2013-03-25 05:42:00,
2013-03-24 22:52:00,44.0,29.0,30.18,NNW,348,4.0,6.0,54,-99.99,,,-99.99,,2013-03-25 05:52:00,
2013-03-24 23:02:00,44.0,29.0,30.18,North,350,3.0,5.0,54,-99.99,,,-99.99,,2013-03-25 06:02:00,
2013-03-24 23:12:00,44.0,29.0,30.18,NNW,345,3.0,5.0,54,-99.99,,,-99.99,,2013-03-25 06:12:00,
2013-03-24 23:22:00,44.0,29.0,30.17,NNW,344,3.0,4.0,55,-99.99,,,-99.99,,2013-03-25 06:22:00,
2013-03-24 23:32:00,44.0,29.0,30.17,North,354,4.0,5.0,55,-99.99,,,-99.99,,2013-03-25 06:32:00,
2013-03-24 23:42:00,44.0,29.0,30.17,North,359,3.0,5.0,55,-99.99,,,-99.99,,2013-03-25 06:42:00,